2019-038AC (44412 NORAD) Tracking and Keplerian Element Data

This shows tracking and keplerian element data for the satellite.

Feedback or suggestion? Click here.




ElementValue
Catalog44412
Name2019-038AC
Epoch Orbit156
Epoch Day198.8763631
Epoch Year2019
RAAN160.5845
Inclination97.4904
Eccentricity0.0022227
Argument of Perigee203.7389
Mean Anonmoly156.2818
Mean Motion15.1174891
Decay Rate3.4E-06
L11 44412U 19038AC 19198.87636310 .00000340 00000-0 23657-4 0 9992
L22 44412 97.4904 160.5845 0022227 203.7389 156.2818 15.11748910 1566

Live tracking and technical data element details for 2019-038AC (NORAD 44412). 2019-038AC can be tracked NOW for your location showing map with azimuth and elevation plus other details from your city location.

Track the satellite on the map from your city or location and see movement details for azimuth, elevation, latitude, longitude, range, height, and movement on the map or in text.







IsCatalogInMostPopularTable: catalog: 44412, numindb: 6
Update: records affected: 1



GetName: 44412 2019-038AC

Hit Count: updated at: Fri, 19 Jul 2019 08:45:29 GMT